| time (UTC) | temp F | wind direction | speed MPH | gust MPH | rain 1hr in | rain 24hr in | rain mn in | humidity % | barometer mb |
| 20260902100000 | 62 | 270 | 6.0 | 7.0 | 0.00 | 0.00 | 0.00 | 32 | 1015.2 |
| 20260902095454 | 63 | 266 | 5.0 | 6.0 | 0.00 | 0.00 | 0.00 | 31 | 1015.3 |
| 20260902094954 | 64 | 279 | 4.0 | 5.0 | 0.00 | 0.00 | 0.00 | 30 | 1015.4 |
| 20260902094449 | 63 | 320 | 5.0 | 6.0 | 0.00 | 0.00 | 0.00 | 29 | 1014.9 |
| 20260902093944 | 63 | 264 | 4.0 | 6.0 | 0.00 | 0.00 | 0.00 | 30 | 1015.4 |
| 20260902093439 | 63 | 9 | 3.0 | 5.0 | 0.00 | 0.00 | 0.00 | 31 | 1014.8 |
| 20260902092937 | 63 | 307 | 4.0 | 5.0 | 0.00 | 0.00 | 0.00 | 31 | 1015.3 |
| 20260902092433 | 63 | 249 | 0.0 | 0.0 | 0.00 | 0.00 | 0.00 | 32 | 1015.2 |
| 20260902091933 | 63 | 291 | 3.0 | 3.0 | 0.00 | 0.00 | 0.00 | 31 | 1015.3 |
| 20260902091429 | 63 | 307 | 3.0 | 7.0 | 0.00 | 0.00 | 0.00 | 33 | 1015.3 |
| 20260902090926 | 64 | 336 | 4.0 | 5.0 | 0.00 | 0.00 | 0.00 | 32 | 1015.3 |
| 20260902090426 | 64 | 236 | 4.0 | 5.0 | 0.00 | 0.00 | 0.00 | 32 | 1015.5 |
| 20260902085924 | 64 | 273 | 5.0 | 7.0 | 0.00 | 0.00 | 0.00 | 33 | 1015.2 |
| 20260902085419 | 64 | 286 | 2.0 | 2.0 | 0.00 | 0.00 | 0.00 | 33 | 1015.3 |
| 20260902084914 | 64 | 232 | 1.0 | 2.0 | 0.00 | 0.00 | 0.00 | 31 | 1015.4 |
| 20260902084412 | 65 | 230 | 4.0 | 6.0 | 0.00 | 0.00 | 0.00 | 30 | 1015.4 |
| 20260902083907 | 65 | 246 | 5.0 | 6.0 | 0.00 | 0.00 | 0.00 | 31 | 1015.4 |
| 20260902083406 | 64 | 296 | 4.0 | 5.0 | 0.00 | 0.00 | 0.00 | 30 | 1015.5 |
| 20260902082901 | 64 | 248 | 3.0 | 3.0 | 0.00 | 0.00 | 0.00 | 34 | 1015.3 |
| 20260902082357 | 64 | 270 | 4.0 | 5.0 | 0.00 | 0.00 | 0.00 | 37 | 1015.6 |
| 20260902081854 | 64 | 249 | 5.0 | 6.0 | 0.00 | 0.00 | 0.00 | 37 | 1015.8 |
| 20260902081349 | 64 | 267 | 3.0 | 3.0 | 0.00 | 0.00 | 0.00 | 37 | 1015.5 |
| 20260902080844 | 65 | 261 | 3.0 | 3.0 | 0.00 | 0.00 | 0.00 | 36 | 1015.5 |
| 20260902080341 | 65 | 277 | 4.0 | 5.0 | 0.00 | 0.00 | 0.00 | 35 | 1015.3 |
| 20260902075840 | 66 | 299 | 5.0 | 5.0 | 0.00 | 0.00 | 0.00 | 35 | 1015.3 |
| 20260902075336 | 65 | 317 | 4.0 | 5.0 | 0.00 | 0.00 | 0.00 | 37 | 1015.3 |
| 20260902074832 | 65 | 270 | 2.0 | 3.0 | 0.00 | 0.00 | 0.00 | 34 | 1015.5 |
| 20260902074328 | 65 | 340 | 3.0 | 5.0 | 0.00 | 0.00 | 0.00 | 37 | 1015.3 |
| 20260902073828 | 64 | 15 | 6.0 | 8.0 | 0.00 | 0.00 | 0.00 | 36 | 1015.4 |
| 20260902073324 | 64 | 281 | 0.0 | 0.0 | 0.00 | 0.00 | 0.00 | 37 | 1015.3 |
| 20260902072820 | 65 | 247 | 0.0 | 0.0 | 0.00 | 0.00 | 0.00 | 36 | 1015.3 |
| 20260902072315 | 64 | 317 | 0.0 | 0.0 | 0.00 | 0.00 | 0.00 | 37 | 1015.4 |
| 20260902071811 | 65 | 272 | 0.0 | 0.0 | 0.00 | 0.00 | 0.00 | 38 | 1015.5 |
| 20260902071306 | 65 | 267 | 0.0 | 0.0 | 0.00 | 0.00 | 0.00 | 37 | 1015.3 |
| 20260902070802 | 65 | 267 | 4.0 | 5.0 | 0.00 | 0.00 | 0.00 | 35 | 1015.5 |
| 20260902070302 | 64 | 284 | 3.0 | 5.0 | 0.00 | 0.00 | 0.00 | 41 | 1015.3 |
| 20260902065800 | 64 | 280 | 3.0 | 3.0 | 0.00 | 0.00 | 0.00 | 43 | 1015.3 |
| 20260902065250 | 64 | 251 | 1.0 | 2.0 | 0.00 | 0.00 | 0.00 | 43 | 1015.2 |
| 20260902064740 | 65 | 270 | 2.0 | 2.0 | 0.00 | 0.00 | 0.00 | 42 | 1015.4 |
| 20260902064236 | 64 | 254 | 2.0 | 2.0 | 0.00 | 0.00 | 0.00 | 43 | 1015.3 |
| 20260902063732 | 64 | 276 | 3.0 | 3.0 | 0.00 | 0.00 | 0.00 | 43 | 1014.9 |
| 20260902063232 | 63 | 251 | 0.0 | 0.0 | 0.00 | 0.00 | 0.00 | 41 | 1015.0 |
| 20260902062732 | 64 | 246 | 0.0 | 0.0 | 0.00 | 0.00 | 0.00 | 40 | 1015.0 |
| 20260902062226 | 64 | 120 | 2.0 | 2.0 | 0.00 | 0.00 | 0.00 | 41 | 1015.2 |
| 20260902061725 | 65 | 10 | 3.0 | 5.0 | 0.00 | 0.00 | 0.00 | 39 | 1015.0 |
| 20260902061221 | 64 | 267 | 1.0 | 1.0 | 0.00 | 0.00 | 0.00 | 38 | 1015.3 |
| 20260902060718 | 64 | 245 | 0.0 | 0.0 | 0.00 | 0.00 | 0.00 | 39 | 1015.3 |
| 20260902060213 | 65 | 252 | 3.0 | 3.0 | 0.00 | 0.00 | 0.00 | 39 | 1015.0 |
| 20260902055709 | 65 | 264 | 1.0 | 1.0 | 0.00 | 0.00 | 0.00 | 38 | 1015.4 |
| 20260902055205 | 65 | 279 | 2.0 | 2.0 | 0.00 | 0.00 | 0.00 | 36 | 1015.0 |
| 20260902054700 | 66 | 276 | 3.0 | 3.0 | 0.00 | 0.00 | 0.00 | 32 | 1015.2 |
| 20260902054155 | 66 | 257 | 1.0 | 1.0 | 0.00 | 0.00 | 0.00 | 34 | 1015.3 |
| 20260902053651 | 65 | 351 | 4.0 | 6.0 | 0.00 | 0.00 | 0.00 | 36 | 1015.3 |
| 20260902053150 | 66 | 246 | 3.0 | 3.0 | 0.00 | 0.00 | 0.00 | 34 | 1015.3 |
| 20260902052650 | 67 | 300 | 3.0 | 3.0 | 0.00 | 0.00 | 0.00 | 32 | 1015.0 |
| 20260902052145 | 67 | 0 | 0.0 | 0.0 | 0.00 | 0.00 | 0.00 | 29 | 1015.3 |
| 20260902051644 | 66 | 5 | 3.0 | 5.0 | 0.00 | 0.00 | 0.00 | 29 | 1015.2 |
| 20260902051139 | 67 | 53 | 2.0 | 2.0 | 0.00 | 0.00 | 0.00 | 32 | 1014.9 |
| 20260902050633 | 67 | 324 | 4.0 | 6.0 | 0.00 | 0.00 | 0.00 | 30 | 1015.0 |
| 20260902050129 | 68 | 77 | 2.0 | 2.0 | 0.00 | 0.00 | 0.00 | 27 | 1014.8 |
| 20260902045624 | 69 | 68 | 3.0 | 3.0 | 0.00 | 0.00 | 0.00 | 25 | 1014.7 |
| 20260902045120 | 71 | 219 | 1.0 | 1.0 | 0.00 | 0.00 | 0.00 | 21 | 1014.6 |
| 20260902044614 | 71 | 199 | 3.0 | 3.0 | 0.00 | 0.00 | 0.00 | 21 | 1014.6 |
| 20260902044110 | 71 | 231 | 5.0 | 7.0 | 0.00 | 0.00 | 0.00 | 20 | 1014.3 |
| 20260902043605 | 71 | 199 | 10.0 | 11.0 | 0.00 | 0.00 | 0.00 | 20 | 1014.3 |
| 20260902043100 | 72 | 253 | 8.0 | 10.0 | 0.00 | 0.00 | 0.00 | 19 | 1014.2 |
| 20260902042600 | 72 | 257 | 10.0 | 11.0 | 0.00 | 0.00 | 0.00 | 17 | 1013.9 |
| 20260902042056 | 73 | 244 | 14.0 | 17.0 | 0.00 | 0.00 | 0.00 | 17 | 1013.8 |
| 20260902041555 | 72 | 219 | 12.0 | 14.0 | 0.00 | 0.00 | 0.00 | 17 | 1014.0 |
| 20260902041050 | 72 | 250 | 14.0 | 18.0 | 0.00 | 0.00 | 0.00 | 18 | 1014.0 |
| 20260902040549 | 72 | 251 | 13.0 | 21.0 | 0.00 | 0.00 | 0.00 | 18 | 1013.8 |
| 20260902040044 | 72 | 272 | 17.0 | 21.0 | 0.00 | 0.00 | 0.00 | 17 | 1013.8 |
| 20260902035543 | 72 | 224 | 13.0 | 16.0 | 0.00 | 0.00 | 0.00 | 18 | 1013.4 |
| 20260902035038 | 72 | 248 | 9.0 | 11.0 | 0.00 | 0.00 | 0.00 | 19 | 1013.8 |
| 20260902034538 | 72 | 244 | 16.0 | 21.0 | 0.00 | 0.00 | 0.00 | 20 | 1013.5 |
| 20260902034037 | 72 | 223 | 13.0 | 15.0 | 0.00 | 0.00 | 0.00 | 20 | 1013.4 |
| 20260902033536 | 73 | 249 | 18.0 | 20.0 | 0.00 | 0.00 | 0.00 | 20 | 1013.2 |
| 20260902033031 | 72 | 264 | 16.0 | 21.0 | 0.00 | 0.00 | 0.00 | 21 | 1013.3 |
| 20260902032530 | 73 | 252 | 14.0 | 16.0 | 0.00 | 0.00 | 0.00 | 21 | 1013.3 |
| 20260902032025 | 73 | 256 | 13.0 | 17.0 | 0.00 | 0.00 | 0.00 | 21 | 1013.0 |
| 20260902031520 | 73 | 235 | 15.0 | 20.0 | 0.00 | 0.00 | 0.00 | 20 | 1012.9 |
| 20260902031016 | 73 | 223 | 19.0 | 23.0 | 0.00 | 0.00 | 0.00 | 21 | 1012.9 |
| 20260902030511 | 73 | 251 | 12.0 | 16.0 | 0.00 | 0.00 | 0.00 | 23 | 1012.9 |
| 20260902030010 | 73 | 237 | 18.0 | 20.0 | 0.00 | 0.00 | 0.00 | 24 | 1013.1 |
| 20260902025505 | 74 | 212 | 19.0 | 22.0 | 0.00 | 0.00 | 0.00 | 24 | 1013.0 |
| 20260902025000 | 74 | 250 | 13.0 | 15.0 | 0.00 | 0.00 | 0.00 | 22 | 1012.8 |
| 20260902024456 | 74 | 237 | 16.0 | 21.0 | 0.00 | 0.00 | 0.00 | 22 | 1012.7 |
| 20260902023950 | 74 | 263 | 21.0 | 24.0 | 0.00 | 0.00 | 0.00 | 22 | 1012.6 |
| 20260902023446 | 74 | 224 | 25.0 | 26.0 | 0.00 | 0.00 | 0.00 | 23 | 1012.5 |
| 20260902022945 | 74 | 244 | 20.0 | 22.0 | 0.00 | 0.00 | 0.00 | 23 | 1012.4 |
| 20260902022440 | 75 | 290 | 15.0 | 18.0 | 0.00 | 0.00 | 0.00 | 23 | 1012.4 |
| 20260902021936 | 75 | 228 | 20.0 | 26.0 | 0.00 | 0.00 | 0.00 | 23 | 1012.4 |
| 20260902021431 | 75 | 239 | 18.0 | 23.0 | 0.00 | 0.00 | 0.00 | 22 | 1012.5 |
| 20260902020926 | 75 | 247 | 21.0 | 26.0 | 0.00 | 0.00 | 0.00 | 22 | 1012.1 |
| 20260902020423 | 76 | 218 | 21.0 | 23.0 | 0.00 | 0.00 | 0.00 | 22 | 1012.1 |
| 20260902015918 | 76 | 252 | 15.0 | 21.0 | 0.00 | 0.00 | 0.00 | 23 | 1012.4 |
| 20260902015413 | 76 | 245 | 21.0 | 22.0 | 0.00 | 0.00 | 0.00 | 23 | 1012.2 |
| 20260902014909 | 76 | 248 | 18.0 | 25.0 | 0.00 | 0.00 | 0.00 | 22 | 1012.5 |
| 20260902014406 | 77 | 222 | 22.0 | 25.0 | 0.00 | 0.00 | 0.00 | 22 | 1012.2 |
| 20260902013904 | 77 | 241 | 23.0 | 27.0 | 0.00 | 0.00 | 0.00 | 22 | 1012.4 |
| 20260902013400 | 77 | 233 | 20.0 | 29.0 | 0.00 | 0.00 | 0.00 | 22 | 1012.6 |
| 20260902012855 | 77 | 255 | 17.0 | 22.0 | 0.00 | 0.00 | 0.00 | 22 | 1012.5 |
| 20260902012351 | 78 | 230 | 16.0 | 21.0 | 0.00 | 0.00 | 0.00 | 21 | 1012.4 |
| 20260902011846 | 78 | 225 | 11.0 | 14.0 | 0.00 | 0.00 | 0.00 | 21 | 1012.4 |
| 20260902011341 | 78 | 245 | 16.0 | 18.0 | 0.00 | 0.00 | 0.00 | 21 | 1012.7 |
| 20260902010841 | 78 | 247 | 20.0 | 24.0 | 0.00 | 0.00 | 0.00 | 21 | 1012.6 |
| 20260902010335 | 78 | 209 | 19.0 | 22.0 | 0.00 | 0.00 | 0.00 | 21 | 1012.6 |
| 20260902005834 | 79 | 249 | 21.0 | 27.0 | 0.00 | 0.00 | 0.00 | 20 | 1012.6 |
| 20260902005328 | 79 | 228 | 16.0 | 22.0 | 0.00 | 0.00 | 0.00 | 20 | 1012.5 |
| 20260902004824 | 79 | 259 | 20.0 | 23.0 | 0.00 | 0.00 | 0.00 | 20 | 1012.6 |
| 20260902004313 | 79 | 243 | 23.0 | 27.0 | 0.00 | 0.00 | 0.00 | 20 | 1012.6 |
| 20260902003808 | 79 | 218 | 23.0 | 27.0 | 0.00 | 0.00 | 0.00 | 20 | 1012.8 |
| 20260902003303 | 80 | 250 | 24.0 | 27.0 | 0.00 | 0.00 | 0.00 | 19 | 1012.6 |
| 20260902002759 | 80 | 230 | 25.0 | 30.0 | 0.00 | 0.00 | 0.00 | 19 | 1012.6 |
| 20260902002259 | 80 | 227 | 25.0 | 30.0 | 0.00 | 0.00 | 0.00 | 19 | 1012.4 |
| 20260902001754 | 80 | 288 | 24.0 | 30.0 | 0.00 | 0.00 | 0.00 | 19 | 1012.6 |
| 20260902001250 | 80 | 233 | 16.0 | 20.0 | 0.00 | 0.00 | 0.00 | 19 | 1012.4 |
| 20260902000749 | 81 | 287 | 14.0 | 18.0 | 0.00 | 0.00 | 0.00 | 19 | 1012.6 |
| 20260902000244 | 80 | 248 | 14.0 | 16.0 | 0.00 | 0.00 | 0.00 | 19 | 1012.6 |
| 20260901235744 | 80 | 262 | 22.0 | 30.0 | 0.00 | 0.00 | 0.00 | 18 | 1012.5 |
| 20260901235239 | 81 | 239 | 21.0 | 26.0 | 0.00 | 0.00 | 0.00 | 18 | 1012.7 |
| 20260901234733 | 81 | 254 | 22.0 | 27.0 | 0.00 | 0.00 | 0.00 | 19 | 1012.5 |
| 20260901234233 | 81 | 219 | 22.0 | 27.0 | 0.00 | 0.00 | 0.00 | 19 | 1012.5 |
| 20260901233728 | 80 | 239 | 27.0 | 33.0 | 0.00 | 0.00 | 0.00 | 20 | 1012.2 |
| 20260901233224 | 81 | 254 | 28.0 | 33.0 | 0.00 | 0.00 | 0.00 | 19 | 1012.4 |
| 20260901232719 | 81 | 236 | 24.0 | 29.0 | 0.00 | 0.00 | 0.00 | 20 | 1012.4 |
| 20260901232214 | 81 | 227 | 26.0 | 32.0 | 0.00 | 0.00 | 0.00 | 18 | 1012.4 |
| 20260901231711 | 81 | 251 | 24.0 | 26.0 | 0.00 | 0.00 | 0.00 | 19 | 1012.5 |
| 20260901231206 | 81 | 264 | 18.0 | 22.0 | 0.00 | 0.00 | 0.00 | 19 | 1012.7 |
| 20260901230701 | 81 | 252 | 22.0 | 25.0 | 0.00 | 0.00 | 0.00 | 19 | 1012.7 |
| 20260901230155 | 81 | 233 | 24.0 | 29.0 | 0.00 | 0.00 | 0.00 | 19 | 1012.6 |
| 20260901225651 | 82 | 245 | 17.0 | 21.0 | 0.00 | 0.00 | 0.00 | 19 | 1012.4 |
| 20260901225145 | 82 | 238 | 13.0 | 15.0 | 0.00 | 0.00 | 0.00 | 18 | 1012.7 |
| 20260901224642 | 82 | 230 | 22.0 | 26.0 | 0.00 | 0.00 | 0.00 | 19 | 1012.7 |
| 20260901224138 | 82 | 182 | 22.0 | 26.0 | 0.00 | 0.00 | 0.00 | 18 | 1012.8 |
| 20260901223632 | 82 | 221 | 21.0 | 30.0 | 0.00 | 0.00 | 0.00 | 18 | 1012.5 |
| 20260901223128 | 81 | 245 | 14.0 | 16.0 | 0.00 | 0.00 | 0.00 | 21 | 1012.6 |
| 20260901222624 | 82 | 241 | 16.0 | 20.0 | 0.00 | 0.00 | 0.00 | 22 | 1012.7 |
| 20260901222120 | 82 | 222 | 17.0 | 20.0 | 0.00 | 0.00 | 0.00 | 21 | 1012.6 |
| 20260901221615 | 81 | 253 | 18.0 | 22.0 | 0.00 | 0.00 | 0.00 | 22 | 1012.9 |
| 20260901221111 | 82 | 220 | 16.0 | 26.0 | 0.00 | 0.00 | 0.00 | 23 | 1012.8 |
| 20260901220610 | 82 | 208 | 18.0 | 22.0 | 0.00 | 0.00 | 0.00 | 23 | 1013.2 |
| 20260901220109 | 81 | 176 | 15.0 | 20.0 | 0.00 | 0.00 | 0.00 | 23 | 1013.1 |
| 20260901215608 | 81 | 230 | 27.0 | 32.0 | 0.00 | 0.00 | 0.00 | 21 | 1013.0 |
| 20260901215102 | 81 | 240 | 24.0 | 27.0 | 0.00 | 0.00 | 0.00 | 23 | 1013.1 |
| 20260901214601 | 82 | 226 | 22.0 | 26.0 | 0.00 | 0.00 | 0.00 | 21 | 1013.3 |
| 20260901214101 | 82 | 233 | 24.0 | 27.0 | 0.00 | 0.00 | 0.00 | 22 | 1013.0 |
| 20260901213555 | 82 | 236 | 25.0 | 29.0 | 0.00 | 0.00 | 0.00 | 22 | 1013.0 |
| 20260901213050 | 82 | 232 | 14.0 | 16.0 | 0.00 | 0.00 | 0.00 | 22 | 1013.0 |
| 20260901212550 | 81 | 248 | 21.0 | 25.0 | 0.00 | 0.00 | 0.00 | 20 | 1013.2 |
| 20260901212046 | 81 | 230 | 27.0 | 31.0 | 0.00 | 0.00 | 0.00 | 21 | 1013.4 |
| 20260901211541 | 81 | 210 | 16.0 | 20.0 | 0.00 | 0.00 | 0.00 | 20 | 1013.3 |
| 20260901211037 | 81 | 268 | 23.0 | 27.0 | 0.00 | 0.00 | 0.00 | 19 | 1013.1 |
| 20260901210532 | 81 | 254 | 29.0 | 38.0 | 0.00 | 0.00 | 0.00 | 19 | 1013.2 |
| 20260901210028 | 80 | 210 | 22.0 | 25.0 | 0.00 | 0.00 | 0.00 | 19 | 1013.2 |
| 20260901205523 | 81 | 221 | 22.0 | 26.0 | 0.00 | 0.00 | 0.00 | 19 | 1013.3 |
| 20260901205018 | 80 | 243 | 27.0 | 30.0 | 0.00 | 0.00 | 0.00 | 20 | 1013.1 |
| 20260901204515 | 80 | 270 | 12.0 | 16.0 | 0.00 | 0.00 | 0.00 | 21 | 1013.9 |
| 20260901204014 | 81 | 249 | 14.0 | 18.0 | 0.00 | 0.00 | 0.00 | 21 | 1014.0 |
| 20260901203509 | 81 | 206 | 16.0 | 18.0 | 0.00 | 0.00 | 0.00 | 20 | 1014.2 |
| 20260901203004 | 81 | 216 | 10.0 | 13.0 | 0.00 | 0.00 | 0.00 | 20 | 1014.2 |
| 20260901202459 | 81 | 247 | 8.0 | 9.0 | 0.00 | 0.00 | 0.00 | 20 | 1014.6 |
| 20260901201955 | 82 | 178 | 7.0 | 9.0 | 0.00 | 0.00 | 0.00 | 20 | 1014.7 |
| 20260901201449 | 81 | 241 | 14.0 | 15.0 | 0.00 | 0.00 | 0.00 | 20 | 1014.6 |
| 20260901200944 | 80 | 171 | 10.0 | 16.0 | 0.00 | 0.00 | 0.00 | 20 | 1014.5 |
| 20260901200438 | 80 | 265 | 5.0 | 8.0 | 0.00 | 0.00 | 0.00 | 21 | 1014.8 |
| 20260901195937 | 80 | 202 | 6.0 | 7.0 | 0.00 | 0.00 | 0.00 | 19 | 1014.8 |
| 20260901195436 | 80 | 203 | 12.0 | 15.0 | 0.00 | 0.00 | 0.00 | 18 | 1014.8 |
| 20260901194931 | 80 | 212 | 8.0 | 9.0 | 0.00 | 0.00 | 0.00 | 18 | 1014.7 |
| 20260901194426 | 80 | 216 | 15.0 | 23.0 | 0.00 | 0.00 | 0.00 | 17 | 1015.0 |
| 20260901193923 | 80 | 215 | 19.0 | 25.0 | 0.00 | 0.00 | 0.00 | 17 | 1015.2 |
| 20260901193421 | 80 | 205 | 7.0 | 9.0 | 0.00 | 0.00 | 0.00 | 18 | 1015.3 |
| 20260901192916 | 80 | 187 | 18.0 | 22.0 | 0.00 | 0.00 | 0.00 | 17 | 1015.0 |
| 20260901192411 | 80 | 141 | 11.0 | 15.0 | 0.00 | 0.00 | 0.00 | 18 | 1014.9 |
| 20260901191908 | 80 | 205 | 18.0 | 22.0 | 0.00 | 0.00 | 0.00 | 18 | 1015.0 |
| 20260901191403 | 79 | 251 | 11.0 | 14.0 | 0.00 | 0.00 | 0.00 | 19 | 1015.4 |
| 20260901190859 | 79 | 189 | 6.0 | 8.0 | 0.00 | 0.00 | 0.00 | 19 | 1015.2 |
| 20260901190359 | 80 | 209 | 10.0 | 11.0 | 0.00 | 0.00 | 0.00 | 19 | 1015.3 |
| 20260901185857 | 80 | 232 | 9.0 | 13.0 | 0.00 | 0.00 | 0.00 | 20 | 1015.6 |
| 20260901185356 | 79 | 245 | 11.0 | 13.0 | 0.00 | 0.00 | 0.00 | 19 | 1015.2 |
| 20260901184851 | 79 | 200 | 11.0 | 14.0 | 0.00 | 0.00 | 0.00 | 19 | 1015.4 |
| 20260901184347 | 79 | 214 | 11.0 | 14.0 | 0.00 | 0.00 | 0.00 | 18 | 1015.4 |
| 20260901183842 | 79 | 214 | 13.0 | 18.0 | 0.00 | 0.00 | 0.00 | 17 | 1015.3 |
| 20260901183341 | 78 | 205 | 10.0 | 18.0 | 0.00 | 0.00 | 0.00 | 18 | 1015.2 |
| 20260901182838 | 78 | 222 | 15.0 | 18.0 | 0.00 | 0.00 | 0.00 | 18 | 1015.4 |
| 20260901182338 | 78 | 236 | 16.0 | 18.0 | 0.00 | 0.00 | 0.00 | 17 | 1015.6 |
| 20260901181832 | 78 | 191 | 17.0 | 23.0 | 0.00 | 0.00 | 0.00 | 16 | 1015.5 |
| 20260901181327 | 78 | 231 | 14.0 | 17.0 | 0.00 | 0.00 | 0.00 | 17 | 1015.5 |
| 20260901180826 | 78 | 194 | 17.0 | 21.0 | 0.00 | 0.00 | 0.00 | 17 | 1015.5 |
| 20260901180325 | 78 | 179 | 13.0 | 14.0 | 0.00 | 0.00 | 0.00 | 16 | 1015.4 |
| 20260901175825 | 79 | 201 | 15.0 | 22.0 | 0.00 | 0.00 | 0.00 | 16 | 1015.2 |
| 20260901175319 | 79 | 179 | 10.0 | 13.0 | 0.00 | 0.00 | 0.00 | 16 | 1015.4 |
| 20260901174814 | 78 | 195 | 8.0 | 10.0 | 0.00 | 0.00 | 0.00 | 16 | 1015.5 |
| 20260901174310 | 78 | 237 | 9.0 | 10.0 | 0.00 | 0.00 | 0.00 | 16 | 1015.4 |
| 20260901173805 | 78 | 221 | 10.0 | 11.0 | 0.00 | 0.00 | 0.00 | 16 | 1015.2 |
| 20260901173300 | 78 | 230 | 9.0 | 11.0 | 0.00 | 0.00 | 0.00 | 17 | 1015.4 |
| 20260901172757 | 78 | 265 | 6.0 | 7.0 | 0.00 | 0.00 | 0.00 | 17 | 1015.3 |
| 20260901172256 | 77 | 253 | 9.0 | 10.0 | 0.00 | 0.00 | 0.00 | 16 | 1015.2 |
| 20260901171754 | 78 | 236 | 11.0 | 13.0 | 0.00 | 0.00 | 0.00 | 16 | 1015.4 |
| 20260901171253 | 77 | 214 | 10.0 | 11.0 | 0.00 | 0.00 | 0.00 | 16 | 1015.2 |
| 20260901170752 | 77 | 237 | 6.0 | 9.0 | 0.00 | 0.00 | 0.00 | 17 | 1015.2 |
| 20260901170247 | 77 | 274 | 9.0 | 11.0 | 0.00 | 0.00 | 0.00 | 17 | 1015.3 |
| 20260901165745 | 77 | 193 | 11.0 | 13.0 | 0.00 | 0.00 | 0.00 | 16 | 1015.2 |
| 20260901165240 | 77 | 255 | 7.0 | 9.0 | 0.00 | 0.00 | 0.00 | 16 | 1015.2 |
| 20260901164737 | 77 | 191 | 6.0 | 8.0 | 0.00 | 0.00 | 0.00 | 16 | 1015.2 |
| 20260901164232 | 76 | 219 | 9.0 | 10.0 | 0.00 | 0.00 | 0.00 | 16 | 1015.2 |
| 20260901163727 | 76 | 186 | 12.0 | 15.0 | 0.00 | 0.00 | 0.00 | 16 | 1015.2 |
| 20260901163226 | 76 | 251 | 10.0 | 11.0 | 0.00 | 0.00 | 0.00 | 16 | 1014.9 |
| 20260901162722 | 75 | 164 | 8.0 | 10.0 | 0.00 | 0.00 | 0.00 | 16 | 1014.9 |
| 20260901162221 | 76 | 203 | 6.0 | 7.0 | 0.00 | 0.00 | 0.00 | 17 | 1015.2 |
| 20260901161720 | 75 | 187 | 7.0 | 9.0 | 0.00 | 0.00 | 0.00 | 17 | 1015.0 |
| 20260901161215 | 75 | 239 | 13.0 | 14.0 | 0.00 | 0.00 | 0.00 | 16 | 1015.2 |
| 20260901160711 | 75 | 214 | 11.0 | 15.0 | 0.00 | 0.00 | 0.00 | 16 | 1015.0 |
| 20260901160207 | 75 | 233 | 5.0 | 6.0 | 0.00 | 0.00 | 0.00 | 16 | 1015.4 |
| 20260901155705 | 75 | 183 | 9.0 | 13.0 | 0.00 | 0.00 | 0.00 | 16 | 1015.4 |
| 20260901155201 | 74 | 228 | 0.0 | 1.0 | 0.00 | 0.00 | 0.00 | 17 | 1015.3 |
| 20260901154655 | 74 | 211 | 3.0 | 3.0 | 0.00 | 0.00 | 0.00 | 17 | 1015.2 |
| 20260901154150 | 72 | 238 | 0.0 | 1.0 | 0.00 | 0.00 | 0.00 | 17 | 1015.2 |
| 20260901153646 | 73 | 270 | 1.0 | 1.0 | 0.00 | 0.00 | 0.00 | 16 | 1015.2 |
| 20260901153145 | 71 | 210 | 0.0 | 1.0 | 0.00 | 0.00 | 0.00 | 16 | 1015.2 |
| 20260901152640 | 70 | 55 | 1.0 | 2.0 | 0.00 | 0.00 | 0.00 | 16 | 1015.2 |
| 20260901152139 | 70 | 246 | 1.0 | 1.0 | 0.00 | 0.00 | 0.00 | 16 | 1015.4 |
| 20260901151635 | 69 | 242 | 1.0 | 1.0 | 0.00 | 0.00 | 0.00 | 17 | 1015.3 |
| 20260901151134 | 68 | 237 | 1.0 | 1.0 | 0.00 | 0.00 | 0.00 | 20 | 1015.2 |
| 20260901150633 | 68 | 272 | 1.0 | 2.0 | 0.00 | 0.00 | 0.00 | 22 | 1015.0 |
| 20260901150132 | 68 | 250 | 2.0 | 2.0 | 0.00 | 0.00 | 0.00 | 21 | 1015.2 |
| 20260901145630 | 66 | 314 | 2.0 | 2.0 | 0.00 | 0.00 | 0.00 | 25 | 1015.0 |
| 20260901145129 | 66 | 314 | 1.0 | 2.0 | 0.00 | 0.00 | 0.00 | 28 | 1015.2 |
| 20260901144625 | 65 | 275 | 1.0 | 1.0 | 0.00 | 0.00 | 0.00 | 31 | 1014.9 |
| 20260901144121 | 64 | 240 | 1.0 | 1.0 | 0.00 | 0.00 | 0.00 | 32 | 1015.3 |
| 20260901143615 | 64 | 259 | 2.0 | 2.0 | 0.00 | 0.00 | 0.00 | 34 | 1014.9 |
| 20260901143112 | 63 | 298 | 1.0 | 1.0 | 0.00 | 0.00 | 0.00 | 35 | 1014.9 |
| 20260901142608 | 63 | 243 | 2.0 | 2.0 | 0.00 | 0.00 | 0.00 | 36 | 1015.0 |
| 20260901142107 | 62 | 336 | 6.0 | 8.0 | 0.00 | 0.00 | 0.00 | 36 | 1014.9 |
| 20260901141602 | 61 | 302 | 0.0 | 0.0 | 0.00 | 0.00 | 0.00 | 41 | 1014.5 |
| 20260901141057 | 61 | 107 | 1.0 | 1.0 | 0.00 | 0.00 | 0.00 | 42 | 1014.5 |
| 20260901140556 | 61 | 163 | 1.0 | 1.0 | 0.00 | 0.00 | 0.00 | 44 | 1014.4 |
| 20260901140055 | 60 | 290 | 1.0 | 1.0 | 0.00 | 0.00 | 0.00 | 45 | 1014.3 |
| 20260901135549 | 60 | 202 | 1.0 | 1.0 | 0.00 | 0.00 | 0.00 | 46 | 1014.4 |
| 20260901135044 | 58 | 90 | 3.0 | 3.0 | 0.00 | 0.00 | 0.00 | 46 | 1014.4 |
| 20260901134540 | 59 | 197 | 2.0 | 2.0 | 0.00 | 0.00 | 0.00 | 49 | 1014.4 |
| 20260901134035 | 59 | 188 | 3.0 | 3.0 | 0.00 | 0.00 | 0.00 | 47 | 1014.7 |
| 20260901133533 | 58 | 332 | 3.0 | 3.0 | 0.00 | 0.00 | 0.00 | 47 | 1014.3 |
| 20260901133027 | 58 | 195 | 0.0 | 0.0 | 0.00 | 0.00 | 0.00 | 48 | 1014.4 |
| 20260901132526 | 58 | 220 | 0.0 | 1.0 | 0.00 | 0.00 | 0.00 | 50 | 1014.3 |
| 20260901132021 | 58 | 250 | 0.0 | 0.0 | 0.00 | 0.00 | 0.00 | 49 | 1014.2 |
| 20260901131520 | 58 | 226 | 0.0 | 0.0 | 0.00 | 0.00 | 0.00 | 48 | 1014.4 |
| 20260901131011 | 58 | 223 | 1.0 | 1.0 | 0.00 | 0.00 | 0.00 | 47 | 1014.3 |
| 20260901130511 | 59 | 229 | 1.0 | 2.0 | 0.00 | 0.00 | 0.00 | 46 | 1014.5 |
| 20260901130009 | 59 | 297 | 1.0 | 1.0 | 0.00 | 0.00 | 0.00 | 44 | 1014.4 |
| 20260901125508 | 59 | 305 | 2.0 | 2.0 | 0.00 | 0.00 | 0.00 | 43 | 1014.5 |
| 20260901125003 | 59 | 287 | 2.0 | 2.0 | 0.00 | 0.00 | 0.00 | 42 | 1014.5 |
| 20260901124458 | 60 | 15 | 3.0 | 3.0 | 0.00 | 0.00 | 0.00 | 42 | 1014.6 |
| 20260901123953 | 60 | 19 | 5.0 | 5.0 | 0.00 | 0.00 | 0.00 | 40 | 1014.5 |
| 20260901123448 | 60 | 346 | 3.0 | 3.0 | 0.00 | 0.00 | 0.00 | 40 | 1014.4 |